Regional Weather Roundup
Issued by NWS

Home | Current Version | Previous Version | Graphics & Text | Print | Product List | Glossary On
Versions: 1 2 3 4 5 6 7 8 9 10 11 12 13 14 15 16 17 18 19 20 21 22 23 24 25 26 27 28 29 30 31 32 33 34 35 36 37 38 39 40 41 42 43 44 45 46 47 48 49 50
650
ASUS43 KOAX 051402
RWRNE

WEATHER ROUNDUP FOR NEBRASKA
NATIONAL WEATHER SERVICE OMAHA NE
800 AM CST MON DEC 05 2016

NOTES: SATELLITE DATA IS BEING USED TO AUGMENT CLOUD COVER ABOVE
       12000 FEET.
       "FAIR" INDICATES FEW OR NO CLOUDS BELOW 12,000 FEET WITH NO
       SIGNIFICANT WEATHER AND/OR OBSTRUCTIONS TO VISIBILITY.

  * THESE STATIONS DO NOT REPORT WEATHER SUCH AS RAIN...SNOW OR FOG.

NEZ001>004-019>022-054>056-051500-
NEBRASKA PANHANDLE

CITY           SKY/WX    TMP DP  RH WIND       PRES   REMARKS
SCOTTSBLUFF    PTCLDY    45  23  42 W10       29.54S
ALLIANCE       CLOUDY    41  22  46 W8        29.53S
CHADRON        CLEAR     34  23  64 W3        29.52R
SIDNEY         CLOUDY    34  20  56 W9        29.57R WCI  27
$$

NEZ057>060-069>072-079>082-051500-
SOUTHWEST NEBRASKA

CITY           SKY/WX    TMP DP  RH WIND       PRES   REMARKS
NORTH PLATTE   CLOUDY    34  21  59 SW6       29.60R WCI  29
IMPERIAL       CLOUDY    30  19  63 N5        29.55F WCI  25
LEXINGTON      CLOUDY    34  24  67 SE6       29.59S WCI  28
MCCOOK         CLOUDY    29  21  72 W5        29.60S WCI  24
OGALLALA       CLOUDY    35  21  57 CALM      29.58R
$$

NEZ005>010-023>029-035>040-094-051500-
NORTH CENTRAL NEBRASKA

CITY           SKY/WX    TMP DP  RH WIND       PRES   REMARKS
VALENTINE      CLOUDY    39  21  48 SW10      29.49F WCI  32
AINSWORTH      PTCLDY    39  23  51 SW12      29.50F WCI  32
BROKEN BOW     PTCLDY    35  23  61 S6        29.56F WCI  30
O`NEILL        CLOUDY    38  23  55 S12       29.54F WCI  30
ORD            PTCLDY    38  22  52 S8        29.59F WCI  32
THEDFORD       CLOUDY    52  27  37 W13       29.55S
$$

NEZ041-046>049-061>064-073>077-083>087-051500-
SOUTH CENTRAL NEBRASKA

CITY           SKY/WX    TMP DP  RH WIND       PRES   REMARKS
GRAND ISLAND   PTCLDY    37  27  67 S17       29.64F WCI  27
AURORA         MOCLDY    35  29  78 S13       29.66F WCI  26
HASTINGS       PTCLDY    35  26  69 S10       29.66F WCI  27
HEBRON         PTCLDY    34  28  77 S10       29.71F WCI  26
HOLDREGE       PTCLDY    32  26  77 SE10      29.60F WCI  24
KEARNEY *      CLOUDY    34  25  69 S15       29.61F WCI  24
YORK           CLOUDY    36  28  75 S16       29.68F WCI  26
$$

NEZ011>018-030>034-042>045-051500-
NORTHEAST NEBRASKA

CITY           SKY/WX    TMP DP  RH WIND       PRES   REMARKS
NORFOLK        PTCLDY    36  26  67 S9        29.63F WCI  29
ALBION         CLOUDY    36  27  69 SE7       29.62F WCI  31
BLAIR          PTCLDY    36  31  82 S13       29.73S WCI  27
FREMONT        PTCLDY    34  29  80 SE5       29.73R WCI  30
TEKAMAH        PTCLDY    33  30  88 SE12      29.72F WCI  24
WAYNE          CLOUDY    36  29  76 S15       29.64F WCI  27
$$

NEZ050>053-065>068-078-088>093-051500-
SOUTHEAST NEBRASKA

CITY           SKY/WX    TMP DP  RH WIND       PRES   REMARKS
LINCOLN        CLOUDY    35  29  78 S12       29.74F WCI  27
OMAHA EPPLEY   MOCLDY    36  29  75 S16       29.76F WCI  26
BEATRICE       CLEAR     36  30  80 S13       29.76F WCI  27
FALLS CITY     CLEAR     35  32  88 S12       29.82F WCI  27
NEBRASKA CITY  CLEAR     34  29  84 S13       29.79S WCI  25
PLATTSMOUTH    PTCLDY    33  28  83 SE10      29.77S WCI  24
$$

NEZ044-045-051>053-067-051500-
OMAHA AREA

CITY           SKY/WX    TMP DP  RH WIND       PRES   REMARKS
OMAHA EPPLEY   MOCLDY    36  29  75 S16       29.76F WCI  26
BLAIR          PTCLDY    36  31  82 S13       29.73S WCI  27
FREMONT        PTCLDY    34  29  80 SE5       29.73R WCI  30
MILLARD        PTCLDY    34  30  86 SE7       29.77S WCI  28
OFFUTT AFB     PTCLDY    34  34  99 S10       29.77F WCI  26
PLATTSMOUTH    PTCLDY    33  28  83 SE10      29.77S WCI  24
WAHOO          FAIR      34  28  79 S13       29.72F WCI  25
$$




USA.gov is the U.S. government's official web portal to all federal, state and local government web resources and services.